Thomson Dream — 9HA2381 — position and weather

sailwx.info

Track history (hours):
 
Tides and Currents Weather Stations Pressure Air Temp Water Temp Dewpoint Dewpoint Depression Visibility Wind Speed Wind Dir Waves Ship Positions

Thomson Dream

Last reported at 2014-Nov-28 08:26 UTC. Time now 2014-Nov-28 18:11 UTC.
Position N 36°07' W 005°21'.

Length 243 m; draft 7.6 m.

Type: Ship. MMSI: 248480975.

Date/timePositionNaut miles runAvg speedWind from/ knotsBaromVisibWave heightAir tempDewpointWater temp
2014-Nov-28 08:26N 36°07' W 005°21'0 0.0
2014-Nov-28 07:32N 36°07' W 005°21'0 0.0
2014-Nov-28 06:32N 36°07' W 005°21'0 0.0
2014-Nov-28 05:32N 36°07' W 005°21'0 0.0
2014-Nov-28 04:32N 36°07' W 005°21'0 0.0
2014-Nov-28 03:32N 36°07' W 005°21'0 0.0
2014-Nov-28 02:32N 36°07' W 005°21'0 0.0
2014-Nov-28 01:32N 36°07' W 005°21'0 0.0
2014-Nov-28 00:32N 36°07' W 005°21'0 0.0
2014-Nov-27 23:32N 36°07' W 005°21'0 0.0
2014-Nov-27 22:32N 36°07' W 005°21'0 0.0
2014-Nov-27 21:32N 36°07' W 005°21'0 0.0
2014-Nov-27 20:33N 36°08' W 005°21'1 1.2
2014-Nov-27 19:33N 36°09' W 005°22'7 6.7
2014-Nov-27 18:33N 36°07' W 005°14'7 0.3
2014-Nov-26 20:33N 36°05' W 005°22'4 0.2
2014-Nov-26 05:33N 36°06' W 005°18'9 4.3
2014-Nov-26 03:33N 36°13' W 005°11'4 1.9
2014-Nov-26 01:33N 36°09' W 005°10'1 1.0
2014-Nov-26 00:34N 36°10' W 005°11'1 1.4
2014-Nov-25 23:32N 36°11' W 005°11'11 3.4
2014-Nov-25 20:18N 36°00' W 005°12'912.6
2014-Nov-25 19:34N 35°59' W 005°24'141 3.5
2014-Nov-24 03:12N 36°35' W 008°12'1516.0
2014-Nov-24 02:15N 36°34' W 008°31'7911.8
2014-Nov-23 19:33N 37°36' W 009°32'1616.4
2014-Nov-23 18:33N 37°52' W 009°30'1616.1
2014-Nov-23 17:33N 38°08' W 009°27'1615.6
2014-Nov-23 16:33N 38°24' W 009°25'1515.1
2014-Nov-23 15:33N 38°38' W 009°21'9 8.9
2014-Nov-23 14:33N 38°41' W 009°10'2 2.3
2014-Nov-23 13:31N 38°43' W 009°08'0 0.0
2014-Nov-23 12:31N 38°43' W 009°08'0 0.0
2014-Nov-23 11:31N 38°43' W 009°08'0 0.0
2014-Nov-23 10:31N 38°43' W 009°08'0 0.0
2014-Nov-23 09:31N 38°43' W 009°08'0 0.0
2014-Nov-23 08:31N 38°43' W 009°08'0 0.0
2014-Nov-23 07:31N 38°43' W 009°08'1 0.7
2014-Nov-23 06:34N 38°42' W 009°08'7 6.6
2014-Nov-23 05:33N 38°41' W 009°17'1611.8
2014-Nov-23 04:14N 38°34' W 009°35'21 0.6
2014-Nov-21 18:22N 38°14' W 009°39'1316.2
2014-Nov-21 17:33N 38°01' W 009°35'1616.4
2014-Nov-21 16:33N 37°45' W 009°31'1716.5
2014-Nov-21 15:33N 37°29' W 009°28'5814.4
2014-Nov-21 11:33N 36°40' W 008°48'16216.1
2014-Nov-21 01:28N 35°59' W 005°34'1415.2
2014-Nov-21 00:33N 36°03' W 005°17'226 5.3
2014-Nov-19 06:12N 37°35' W 000°59'6 7.7
2014-Nov-19 05:25N 37°31' W 000°54'1112.1
2014-Nov-19 04:33N 37°31' W 000°41'1010.4
2014-Nov-19 03:33N 37°38' W 000°31'1210.9
2014-Nov-19 02:27N 37°48' W 000°22'1010.8
2014-Nov-19 01:33N 37°56' W 000°15'91 9.6
2014-Nov-18 16:04N 39°27' W 000°19'0 0.0
2014-Nov-18 15:25N 39°27' W 000°19'0 0.0
2014-Nov-18 14:22N 39°27' W 000°19'0 0.0
2014-Nov-18 13:31N 39°27' W 000°19'0 0.0
2014-Nov-18 12:28N 39°27' W 000°19'0 0.0
2014-Nov-18 11:31N 39°27' W 000°19'0 0.0
2014-Nov-18 10:31N 39°27' W 000°19'0 0.0
2014-Nov-18 09:22N 39°27' W 000°19'  
Track history (hours):
 
Tides and Currents Weather Stations Pressure Air Temp Water Temp Dewpoint Dewpoint Depression Visibility Wind Speed Wind Dir Waves Ship Positions

Thomson Dream

Last reported at 2014-Nov-28 08:26 UTC. Time now 2014-Nov-28 18:11 UTC.
Position N 36°07' W 005°21'.

Length 243 m; draft 7.6 m.

Type: Ship. MMSI: 248480975.

Date/timePositionNaut miles runAvg speedWind from/ knotsBaromVisibWave heightAir tempDewpointWater temp
2014-Nov-28 08:26N 36°07' W 005°21'0 0.0
2014-Nov-28 07:32N 36°07' W 005°21'0 0.0
2014-Nov-28 06:32N 36°07' W 005°21'0 0.0
2014-Nov-28 05:32N 36°07' W 005°21'0 0.0
2014-Nov-28 04:32N 36°07' W 005°21'0 0.0
2014-Nov-28 03:32N 36°07' W 005°21'0 0.0
2014-Nov-28 02:32N 36°07' W 005°21'0 0.0
2014-Nov-28 01:32N 36°07' W 005°21'0 0.0
2014-Nov-28 00:32N 36°07' W 005°21'0 0.0
2014-Nov-27 23:32N 36°07' W 005°21'0 0.0
2014-Nov-27 22:32N 36°07' W 005°21'0 0.0
2014-Nov-27 21:32N 36°07' W 005°21'0 0.0
2014-Nov-27 20:33N 36°08' W 005°21'1 1.2
2014-Nov-27 19:33N 36°09' W 005°22'7 6.7
2014-Nov-27 18:33N 36°07' W 005°14'7 0.3
2014-Nov-26 20:33N 36°05' W 005°22'4 0.2
2014-Nov-26 05:33N 36°06' W 005°18'9 4.3
2014-Nov-26 03:33N 36°13' W 005°11'4 1.9
2014-Nov-26 01:33N 36°09' W 005°10'1 1.0
2014-Nov-26 00:34N 36°10' W 005°11'1 1.4
2014-Nov-25 23:32N 36°11' W 005°11'11 3.4
2014-Nov-25 20:18N 36°00' W 005°12'912.6
2014-Nov-25 19:34N 35°59' W 005°24'141 3.5
2014-Nov-24 03:12N 36°35' W 008°12'1516.0
2014-Nov-24 02:15N 36°34' W 008°31'7911.8
2014-Nov-23 19:33N 37°36' W 009°32'1616.4
2014-Nov-23 18:33N 37°52' W 009°30'1616.1
2014-Nov-23 17:33N 38°08' W 009°27'1615.6
2014-Nov-23 16:33N 38°24' W 009°25'1515.1
2014-Nov-23 15:33N 38°38' W 009°21'9 8.9
2014-Nov-23 14:33N 38°41' W 009°10'2 2.3
2014-Nov-23 13:31N 38°43' W 009°08'0 0.0
2014-Nov-23 12:31N 38°43' W 009°08'0 0.0
2014-Nov-23 11:31N 38°43' W 009°08'0 0.0
2014-Nov-23 10:31N 38°43' W 009°08'0 0.0
2014-Nov-23 09:31N 38°43' W 009°08'0 0.0
2014-Nov-23 08:31N 38°43' W 009°08'0 0.0
2014-Nov-23 07:31N 38°43' W 009°08'1 0.7
2014-Nov-23 06:34N 38°42' W 009°08'7 6.6
2014-Nov-23 05:33N 38°41' W 009°17'1611.8
2014-Nov-23 04:14N 38°34' W 009°35'21 0.6
2014-Nov-21 18:22N 38°14' W 009°39'1316.2
2014-Nov-21 17:33N 38°01' W 009°35'1616.4
2014-Nov-21 16:33N 37°45' W 009°31'1716.5
2014-Nov-21 15:33N 37°29' W 009°28'5814.4
2014-Nov-21 11:33N 36°40' W 008°48'16216.1
2014-Nov-21 01:28N 35°59' W 005°34'1415.2
2014-Nov-21 00:33N 36°03' W 005°17'226 5.3
2014-Nov-19 06:12N 37°35' W 000°59'6 7.7
2014-Nov-19 05:25N 37°31' W 000°54'1112.1
2014-Nov-19 04:33N 37°31' W 000°41'1010.4
2014-Nov-19 03:33N 37°38' W 000°31'1210.9
2014-Nov-19 02:27N 37°48' W 000°22'1010.8
2014-Nov-19 01:33N 37°56' W 000°15'91 9.6
2014-Nov-18 16:04N 39°27' W 000°19'0 0.0
2014-Nov-18 15:25N 39°27' W 000°19'0 0.0
2014-Nov-18 14:22N 39°27' W 000°19'0 0.0
2014-Nov-18 13:31N 39°27' W 000°19'0 0.0
2014-Nov-18 12:28N 39°27' W 000°19'0 0.0
2014-Nov-18 11:31N 39°27' W 000°19'0 0.0
2014-Nov-18 10:31N 39°27' W 000°19'0 0.0
2014-Nov-18 09:22N 39°27' W 000°19'  

Dump ship's entire track history